Horseshoe Bay, TX

1:00 AM MST on December 13, 2017 (GMT -0700)
Horseshoe Bay

Weather History for KDZB - May, 2013

Change the Weather History Date:

Friday, May 10, 2013

  Actual Average (KBMQ) Record (KBMQ)
Temperature  
Mean Temperature 73 °F -  
Max Temperature 86 °F 81 °F 93 °F (2008)
Min Temperature 60 °F 61 °F 55 °F (1997)
Cooling Degree Days 8    
Growing Degree Days 23 (Base 50)    
Moisture  
Dew Point 60 °F    
Average Humidity 79    
Maximum Humidity 100    
Minimum Humidity 37    
Precipitation  
Precipitation 0.43 in - - ()
Sea Level Pressure  
Sea Level Pressure 29.95 in    
Wind  
Wind Speed 3 mph (North)    
Max Wind Speed 21 mph    
Max Gust Speed 31 mph    
Visibility 9 miles    
Events Rain , Thunderstorm    
Averages and records for this station are not official NWS values.
T = Trace of Precipitation, MM = Missing Value Source: NWS Daily Summary

Daily Weather History Graph

Daily Weather History Graph

Search for Another Location

Airport or City:

Trip Planner

Search our weather history database for the weather conditions in past years. The results will help you decide how hot, cold, wet, or windy it might be!

Date:

Astronomy

May. 10, 2013 Rise Set
Actual Time 5:42 AM MDT 7:17 PM MDT
Civil Twilight 5:16 AM MDT 7:43 PM MDT
Nautical Twilight 4:44 AM MDT 8:15 PM MDT
Astronomical Twilight 4:12 AM MDT 8:48 PM MDT
Moon 6:08 AM MDT (5/10) 8:06 PM MDT (5/10)
Length of Visible Light 14h 27m
Length of Day
13h 35m
New Moon, 1% of the Moon is Illuminated
May 10
New Moon
May 17
First Quarter
May 24
Full
May 31
Last Quarter
Jun 8
New

Hourly Weather History & Observations

Time (MDT) Temp. Heat Index Dew Point Humidity Pressure Visibility Wind Dir Wind Speed Gust Speed Precip Events Conditions
12:15 AM 64.4 °F - 53.6 °F 68% 29.86 in 10.0 mi Calm Calm - N/A   Clear
12:35 AM 64.4 °F - 55.4 °F 73% 29.86 in 10.0 mi Calm Calm - N/A   Clear
12:55 AM 62.6 °F - 53.6 °F 72% 29.87 in 10.0 mi SW 8.1 mph - N/A   Clear
1:15 AM 62.6 °F - 53.6 °F 72% 29.88 in 10.0 mi Calm Calm - N/A   Clear
1:35 AM 62.6 °F - 53.6 °F 72% 29.85 in 10.0 mi SSE 4.6 mph - N/A   Clear
1:55 AM 62.6 °F - 55.4 °F 77% 29.88 in 10.0 mi NNE 5.8 mph - N/A   Clear
2:15 AM 62.6 °F - 55.4 °F 77% 29.88 in 10.0 mi Calm Calm - N/A   Clear
2:35 AM 60.8 °F - 55.4 °F 82% 29.87 in 10.0 mi Calm Calm - N/A   Clear
2:55 AM 60.8 °F - 55.4 °F 82% 29.88 in 10.0 mi Calm Calm - N/A   Clear
3:15 AM 60.8 °F - 55.4 °F 82% 29.89 in 10.0 mi Calm Calm - N/A   Clear
3:35 AM 60.8 °F - 53.6 °F 77% 29.90 in 10.0 mi Calm Calm - N/A Thunderstorm Clear
3:55 AM 62.6 °F - 55.4 °F 77% 29.93 in 10.0 mi NNW 4.6 mph - N/A Thunderstorm Thunderstorm
4:15 AM 62.6 °F - 55.4 °F 77% 29.96 in 10.0 mi SW 5.8 mph - N/A Rain , Thunderstorm Rain
4:35 AM 62.6 °F - 59.0 °F 88% 29.93 in 10.0 mi NNW 10.4 mph - N/A Rain , Thunderstorm Light Thunderstorms and Rain
4:55 AM 62.6 °F - 60.8 °F 94% 29.92 in 10.0 mi NNW 5.8 mph - 0.01 in Rain , Thunderstorm Light Thunderstorms and Rain
5:15 AM 62.6 °F - 62.6 °F 100% 29.91 in 10.0 mi NNW 4.6 mph - N/A Rain , Thunderstorm Light Thunderstorms and Rain
5:35 AM 62.6 °F - 62.6 °F 100% 29.99 in 10.0 mi West 8.1 mph - 0.01 in Rain , Thunderstorm Light Thunderstorms and Rain
5:55 AM 62.6 °F - 62.6 °F 100% 29.98 in 7.0 mi NNW 11.5 mph 17.3 mph 0.05 in Rain , Thunderstorm Thunderstorms and Rain
6:15 AM 62.6 °F - 62.6 °F 100% 30.03 in 10.0 mi WNW 8.1 mph 16.1 mph 0.03 in Rain , Thunderstorm Light Thunderstorms and Rain
6:35 AM 62.6 °F - 62.6 °F 100% 30.05 in 7.0 mi NW 6.9 mph - 0.06 in Rain , Thunderstorm Thunderstorms and Rain
6:55 AM 62.6 °F - 62.6 °F 100% 29.99 in 5.0 mi Calm Calm - 0.10 in Rain , Thunderstorm Light Thunderstorms and Rain
7:15 AM 62.6 °F - 62.6 °F 100% 29.95 in 10.0 mi SE 4.6 mph - N/A   Clear
7:35 AM 62.6 °F - 62.6 °F 100% 29.96 in 10.0 mi Calm Calm - N/A   Clear
7:55 AM 64.4 °F - 64.4 °F 100% 29.95 in 10.0 mi Calm Calm - N/A   Clear
8:15 AM 66.2 °F - 62.6 °F 88% 29.95 in 10.0 mi ENE 4.6 mph - N/A   Clear
8:35 AM 66.2 °F - 60.8 °F 83% 29.95 in 10.0 mi NE 3.5 mph - N/A   Clear
8:55 AM 68.0 °F - 62.6 °F 83% 29.95 in 10.0 mi North 3.5 mph - N/A   Clear
9:15 AM 69.8 °F - 62.6 °F 78% 29.95 in 10.0 mi North 3.5 mph - N/A   Clear
9:35 AM 71.6 °F - 60.8 °F 69% 29.95 in 10.0 mi NE 4.6 mph - N/A   Clear
9:55 AM 71.6 °F - 60.8 °F 69% 29.95 in 10.0 mi Calm Calm - N/A   Clear
10:15 AM 71.6 °F - 60.8 °F 69% 29.95 in 10.0 mi Calm Calm - N/A   Clear
10:35 AM 73.4 °F - 60.8 °F 65% 29.95 in 10.0 mi North 5.8 mph - N/A   Clear
10:55 AM 75.2 °F - 60.8 °F 61% 29.94 in 10.0 mi Calm Calm - N/A   Clear
11:15 AM 77.0 °F - 59.0 °F 54% 29.93 in 10.0 mi ENE 4.6 mph - N/A   Clear
11:35 AM 80.6 °F 81.5 °F 60.8 °F 51% 29.94 in 10.0 mi NNW 6.9 mph - N/A   Clear
11:55 AM 80.6 °F 81.5 °F 60.8 °F 51% 29.94 in 10.0 mi NW 6.9 mph - N/A   Clear
12:15 PM 80.6 °F 81.1 °F 59.0 °F 48% 29.94 in 10.0 mi NW 4.6 mph - N/A   Clear
12:55 PM 80.6 °F 81.1 °F 59.0 °F 48% 29.94 in 10.0 mi WNW 8.1 mph - N/A   Clear
1:15 PM 80.6 °F 81.8 °F 62.6 °F 54% 29.93 in 10.0 mi NW 8.1 mph - N/A   Clear
1:35 PM 82.4 °F 83.4 °F 62.6 °F 51% 29.92 in 10.0 mi WNW 4.6 mph - N/A   Clear
1:55 PM 82.4 °F 82.9 °F 60.8 °F 48% 29.92 in 10.0 mi WSW 4.6 mph - N/A   Clear
2:15 PM 84.2 °F 83.8 °F 59.0 °F 42% 29.90 in 10.0 mi ENE 4.6 mph - N/A   Clear
2:35 PM 84.2 °F 83.0 °F 55.4 °F 37% 29.89 in 10.0 mi East 3.5 mph - N/A   Scattered Clouds
3:15 PM 86.0 °F 84.9 °F 57.2 °F 37% 29.88 in 10.0 mi NE 4.6 mph - N/A   Scattered Clouds
3:35 PM 84.2 °F 83.5 °F 57.2 °F 40% 29.88 in 10.0 mi East 5.8 mph - N/A   Mostly Cloudy
3:55 PM 82.4 °F 82.5 °F 59.0 °F 45% 29.88 in 10.0 mi ENE 5.8 mph - N/A   Overcast
4:15 PM 78.8 °F - 62.6 °F 57% 29.88 in 5.0 mi ESE 4.6 mph - 0.02 in Rain Rain
4:55 PM 69.8 °F - 62.6 °F 78% 29.89 in 2.5 mi SE 6.9 mph - 0.17 in Rain Heavy Rain
5:15 PM 68.0 °F - 62.6 °F 83% 29.87 in 4.0 mi East 5.8 mph - 0.08 in Rain Rain
5:35 PM 68.0 °F - 64.4 °F 88% 29.91 in 10.0 mi North 5.8 mph - 0.08 in Rain Light Rain
5:55 PM 68.0 °F - 62.6 °F 83% 29.92 in 7.0 mi NNE 3.5 mph - 0.09 in Rain Light Rain
6:15 PM 66.2 °F - 62.6 °F 88% 29.98 in 1.0 mi North 20.7 mph 31.1 mph N/A Rain Light Rain
6:35 PM 62.6 °F - 60.8 °F 94% 30.00 in 10.0 mi NNE 6.9 mph 21.9 mph 0.01 in Rain , Thunderstorm Light Thunderstorms and Rain
6:55 PM 62.6 °F - 60.8 °F 94% 30.00 in 10.0 mi NNE 4.6 mph - 0.01 in   Mostly Cloudy
7:15 PM 64.4 °F - 60.8 °F 88% 30.02 in 10.0 mi North 3.5 mph - N/A   Mostly Cloudy
7:35 PM 62.6 °F - 60.8 °F 94% 30.04 in 10.0 mi Calm Calm - N/A Thunderstorm Scattered Clouds
7:55 PM 62.6 °F - 62.6 °F 100% 30.04 in 10.0 mi Calm Calm - N/A   Scattered Clouds
8:15 PM 62.6 °F - 62.6 °F 100% 30.04 in 10.0 mi ENE 3.5 mph - N/A   Clear
8:35 PM 62.6 °F - 60.8 °F 94% 30.04 in 10.0 mi NE 3.5 mph - N/A   Clear
8:55 PM 62.6 °F - 62.6 °F 100% 30.03 in 10.0 mi Calm Calm - N/A   Clear
9:15 PM 60.8 °F - 60.8 °F 100% 30.03 in 10.0 mi Calm Calm - N/A   Clear
9:35 PM 60.8 °F - 60.8 °F 100% 30.04 in 10.0 mi West 3.5 mph - N/A   Clear
9:55 PM 60.8 °F - 60.8 °F 100% 30.04 in 10.0 mi Calm Calm - N/A   Clear
10:15 PM 60.8 °F - 60.8 °F 100% 30.04 in 7.0 mi Calm Calm - N/A   Clear
10:35 PM 60.8 °F - 60.8 °F 100% 30.04 in 10.0 mi Calm Calm - N/A   Clear
10:55 PM 60.8 °F - 60.8 °F 100% 30.03 in 10.0 mi Calm Calm - N/A   Clear
11:15 PM 60.8 °F - 60.8 °F 100% 30.03 in 10.0 mi WNW 3.5 mph - N/A   Clear
11:35 PM 60.8 °F - 60.8 °F 100% 30.04 in 10.0 mi WSW 3.5 mph - N/A   Clear
11:55 PM 60.8 °F - 60.8 °F 100% 30.04 in 10.0 mi Calm Calm - N/A   Clear